Year,Month,Day,Hour,Minute,Value (Times are PST for temperature in C)
2016,07,15,00,00,15.20
2016,07,15,00,01,15.10
2016,07,15,00,02,15.10
2016,07,15,00,03,15.10
2016,07,15,00,04,15.10
2016,07,15,00,05,15.10
2016,07,15,00,06,15.10
2016,07,15,00,07,15.10
2016,07,15,00,08,15.10
2016,07,15,00,09,15.10
2016,07,15,00,10,15.10
2016,07,15,00,11,15.10
2016,07,15,00,12,15.10
2016,07,15,00,13,15.10
2016,07,15,00,14,15.10
2016,07,15,00,15,15.10
2016,07,15,00,16,15.10
2016,07,15,00,17,15.10
2016,07,15,00,18,15.10
2016,07,15,00,19,15.10
2016,07,15,00,20,15.10
2016,07,15,00,21,15.10
2016,07,15,00,22,15.10
2016,07,15,00,23,15.10
2016,07,15,00,24,15.10
2016,07,15,00,25,15.10
2016,07,15,00,26,15.10
2016,07,15,00,27,15.10
2016,07,15,00,28,15.10
2016,07,15,00,29,15.00
2016,07,15,00,30,15.00
2016,07,15,00,31,15.00
2016,07,15,00,32,15.00
2016,07,15,00,33,15.00
2016,07,15,00,34,15.00
2016,07,15,00,35,15.00
2016,07,15,00,36,14.90
2016,07,15,00,37,14.90
2016,07,15,00,38,14.90
2016,07,15,00,39,14.90
2016,07,15,00,40,14.90
2016,07,15,00,41,15.00
2016,07,15,00,42,14.90
2016,07,15,00,43,15.00
2016,07,15,00,44,15.00
2016,07,15,00,45,15.00
2016,07,15,00,46,15.00
2016,07,15,00,47,15.00
2016,07,15,00,48,15.00
2016,07,15,00,49,14.90
2016,07,15,00,50,14.90
2016,07,15,00,51,14.90
2016,07,15,00,52,14.90
2016,07,15,00,53,14.90
2016,07,15,00,54,14.90
2016,07,15,00,55,14.90
2016,07,15,00,56,14.90
2016,07,15,00,57,14.90
2016,07,15,00,58,14.90
2016,07,15,00,59,14.80
2016,07,15,01,00,14.80
2016,07,15,01,01,14.80
2016,07,15,01,02,14.80
2016,07,15,01,03,14.80
2016,07,15,01,04,14.80
2016,07,15,01,05,14.80
2016,07,15,01,06,14.80
2016,07,15,01,07,14.80
2016,07,15,01,08,14.80
2016,07,15,01,09,14.80
2016,07,15,01,10,14.80
2016,07,15,01,11,14.80
2016,07,15,01,12,14.80
2016,07,15,01,13,14.80
2016,07,15,01,14,14.80
2016,07,15,01,15,14.80
2016,07,15,01,16,14.80
2016,07,15,01,17,14.80
2016,07,15,01,18,14.80
2016,07,15,01,19,14.80
2016,07,15,01,20,14.80
2016,07,15,01,21,14.70
2016,07,15,01,22,14.70
2016,07,15,01,23,14.70
2016,07,15,01,24,14.70
2016,07,15,01,25,14.70
2016,07,15,01,26,14.60
2016,07,15,01,27,14.60
2016,07,15,01,28,14.60
2016,07,15,01,29,14.60
2016,07,15,01,30,14.60
2016,07,15,01,31,14.60
2016,07,15,01,32,14.60
2016,07,15,01,33,14.50
2016,07,15,01,34,14.50
2016,07,15,01,35,14.50
2016,07,15,01,36,14.50
2016,07,15,01,37,14.50
2016,07,15,01,38,14.50
2016,07,15,01,39,14.50
2016,07,15,01,40,14.40
2016,07,15,01,41,14.40
2016,07,15,01,42,14.40
2016,07,15,01,43,14.40
2016,07,15,01,44,14.40
2016,07,15,01,45,14.40
2016,07,15,01,46,14.40
2016,07,15,01,47,14.40
2016,07,15,01,48,14.40
2016,07,15,01,49,14.40
2016,07,15,01,50,14.40
2016,07,15,01,51,14.30
2016,07,15,01,52,14.30
2016,07,15,01,53,14.30
2016,07,15,01,54,14.30
2016,07,15,01,55,14.30
2016,07,15,01,56,14.30
2016,07,15,01,57,14.30
2016,07,15,01,58,14.30
2016,07,15,01,59,14.20
2016,07,15,02,00,14.20
2016,07,15,02,01,14.20
2016,07,15,02,02,14.20
2016,07,15,02,03,14.20
2016,07,15,02,04,14.20
2016,07,15,02,05,14.20
2016,07,15,02,06,14.20
2016,07,15,02,07,14.10
2016,07,15,02,08,14.10
2016,07,15,02,09,14.10
2016,07,15,02,10,14.10
2016,07,15,02,11,14.10
2016,07,15,02,12,14.10
2016,07,15,02,13,14.10
2016,07,15,02,14,14.00
2016,07,15,02,15,14.00
2016,07,15,02,16,14.00
2016,07,15,02,17,13.90
2016,07,15,02,18,13.90
2016,07,15,02,19,13.90
2016,07,15,02,20,13.80
2016,07,15,02,21,13.80
2016,07,15,02,22,13.80
2016,07,15,02,23,13.70
2016,07,15,02,24,13.70
2016,07,15,02,25,13.70
2016,07,15,02,26,13.70
2016,07,15,02,27,13.60
2016,07,15,02,28,13.60
2016,07,15,02,29,13.60
2016,07,15,02,30,13.60
2016,07,15,02,31,13.50
2016,07,15,02,32,13.50
2016,07,15,02,33,13.50
2016,07,15,02,34,13.50
2016,07,15,02,35,13.50
2016,07,15,02,36,13.60
2016,07,15,02,37,13.60
2016,07,15,02,38,13.60
2016,07,15,02,39,13.50
2016,07,15,02,40,13.50
2016,07,15,02,41,13.50
2016,07,15,02,42,13.50
2016,07,15,02,43,13.40
2016,07,15,02,44,13.40
2016,07,15,02,45,13.40
2016,07,15,02,46,13.40
2016,07,15,02,47,13.40
2016,07,15,02,48,13.40
2016,07,15,02,49,13.40
2016,07,15,02,50,13.30
2016,07,15,02,51,13.30
2016,07,15,02,52,13.30
2016,07,15,02,53,13.30
2016,07,15,02,54,13.30
2016,07,15,02,55,13.30
2016,07,15,02,56,13.30
2016,07,15,02,57,13.30
2016,07,15,02,58,13.30
2016,07,15,02,59,13.20
2016,07,15,03,00,13.20
2016,07,15,03,01,13.20
2016,07,15,03,02,13.20
2016,07,15,03,03,13.20
2016,07,15,03,04,13.20
2016,07,15,03,05,13.20
2016,07,15,03,06,13.20
2016,07,15,03,07,13.10
2016,07,15,03,08,13.10
2016,07,15,03,09,13.10
2016,07,15,03,10,13.10
2016,07,15,03,11,13.10
2016,07,15,03,12,13.10
2016,07,15,03,13,13.10
2016,07,15,03,14,13.00
2016,07,15,03,15,13.00
2016,07,15,03,16,13.00
2016,07,15,03,17,13.00
2016,07,15,03,18,12.90
2016,07,15,03,19,12.90
2016,07,15,03,20,12.90
2016,07,15,03,21,12.90
2016,07,15,03,22,12.90
2016,07,15,03,23,12.90
2016,07,15,03,24,12.90
2016,07,15,03,25,12.90
2016,07,15,03,26,12.90
2016,07,15,03,27,12.90
2016,07,15,03,28,12.90
2016,07,15,03,29,12.90
2016,07,15,03,30,12.90
2016,07,15,03,31,12.90
2016,07,15,03,32,12.90
2016,07,15,03,33,12.80
2016,07,15,03,34,12.80
2016,07,15,03,35,12.80
2016,07,15,03,36,12.80
2016,07,15,03,37,12.80
2016,07,15,03,38,12.80
2016,07,15,03,39,12.80
2016,07,15,03,40,12.80
2016,07,15,03,41,12.80
2016,07,15,03,42,12.80
2016,07,15,03,43,12.80
2016,07,15,03,44,12.80
2016,07,15,03,45,12.80
2016,07,15,03,46,12.80
2016,07,15,03,47,12.80
2016,07,15,03,48,12.80
2016,07,15,03,49,12.80
2016,07,15,03,50,12.80
2016,07,15,03,51,12.80
2016,07,15,03,52,12.80
2016,07,15,03,53,12.80
2016,07,15,03,54,12.80
2016,07,15,03,55,12.80
2016,07,15,03,56,12.80
2016,07,15,03,57,12.80
2016,07,15,03,58,12.70
2016,07,15,03,59,12.70
2016,07,15,04,00,12.70
2016,07,15,04,01,12.70
2016,07,15,04,02,12.70
2016,07,15,04,03,12.70
2016,07,15,04,04,12.70
2016,07,15,04,05,12.70
2016,07,15,04,06,12.70
2016,07,15,04,07,12.70
2016,07,15,04,08,12.70
2016,07,15,04,09,12.70
2016,07,15,04,10,12.60
2016,07,15,04,11,12.60
2016,07,15,04,12,12.60
2016,07,15,04,13,12.60
2016,07,15,04,14,12.60
2016,07,15,04,15,12.50
2016,07,15,04,16,12.50
2016,07,15,04,17,12.50
2016,07,15,04,18,12.50
2016,07,15,04,19,12.50
2016,07,15,04,20,12.50
2016,07,15,04,21,12.50
2016,07,15,04,22,12.50
2016,07,15,04,23,12.50
2016,07,15,04,24,12.50
2016,07,15,04,25,12.50
2016,07,15,04,26,12.50
2016,07,15,04,27,12.50
2016,07,15,04,28,12.50
2016,07,15,04,29,12.50
2016,07,15,04,30,12.50
2016,07,15,04,31,12.50
2016,07,15,04,32,12.60
2016,07,15,04,33,12.50
2016,07,15,04,34,12.50
2016,07,15,04,35,12.50
2016,07,15,04,36,12.50
2016,07,15,04,37,12.50
2016,07,15,04,38,12.40
2016,07,15,04,39,12.40
2016,07,15,04,40,12.40
2016,07,15,04,41,12.40
2016,07,15,04,42,12.40
2016,07,15,04,43,12.40
2016,07,15,04,44,12.40
2016,07,15,04,45,12.30
2016,07,15,04,46,12.30
2016,07,15,04,47,12.30
2016,07,15,04,48,12.30
2016,07,15,04,49,12.30
2016,07,15,04,50,12.30
2016,07,15,04,51,12.30
2016,07,15,04,52,12.30
2016,07,15,04,53,12.30
2016,07,15,04,54,12.30
2016,07,15,04,55,12.30
2016,07,15,04,56,12.30
2016,07,15,04,57,12.30
2016,07,15,04,58,12.30
2016,07,15,04,59,12.30
2016,07,15,05,00,12.30
2016,07,15,05,01,12.30
2016,07,15,05,02,12.30
2016,07,15,05,03,12.30
2016,07,15,05,04,12.30
2016,07,15,05,05,12.30
2016,07,15,05,06,12.30
2016,07,15,05,07,12.20
2016,07,15,05,08,12.20
2016,07,15,05,09,12.20
2016,07,15,05,10,12.20
2016,07,15,05,11,12.20
2016,07,15,05,12,12.20
2016,07,15,05,13,12.20
2016,07,15,05,14,12.20
2016,07,15,05,15,12.10
2016,07,15,05,16,12.10
2016,07,15,05,17,12.10
2016,07,15,05,18,12.10
2016,07,15,05,19,12.10
2016,07,15,05,20,12.10
2016,07,15,05,21,12.10
2016,07,15,05,22,12.10
2016,07,15,05,23,12.10
2016,07,15,05,24,12.00
2016,07,15,05,25,12.00
2016,07,15,05,26,12.00
2016,07,15,05,27,12.00
2016,07,15,05,28,12.00
2016,07,15,05,29,11.90
2016,07,15,05,30,11.90
2016,07,15,05,31,11.90
2016,07,15,05,32,11.90
2016,07,15,05,33,11.90
2016,07,15,05,34,11.90
2016,07,15,05,35,11.90
2016,07,15,05,36,11.90
2016,07,15,05,37,11.90
2016,07,15,05,38,11.90
2016,07,15,05,39,11.90
2016,07,15,05,40,11.90
2016,07,15,05,41,11.90
2016,07,15,05,42,11.90
2016,07,15,05,43,11.90
2016,07,15,05,44,11.90
2016,07,15,05,45,11.90
2016,07,15,05,46,11.90
2016,07,15,05,47,11.90
2016,07,15,05,48,11.80
2016,07,15,05,49,11.80
2016,07,15,05,50,11.80
2016,07,15,05,51,11.80
2016,07,15,05,52,11.80
2016,07,15,05,53,11.80
2016,07,15,05,54,11.80
2016,07,15,05,55,11.80
2016,07,15,05,56,11.80
2016,07,15,05,57,11.80
2016,07,15,05,58,11.80
2016,07,15,05,59,11.80
2016,07,15,06,00,11.80
2016,07,15,06,01,11.80
2016,07,15,06,02,11.80
2016,07,15,06,03,11.80
2016,07,15,06,04,11.80
2016,07,15,06,05,11.80
2016,07,15,06,06,11.80
2016,07,15,06,07,11.80
2016,07,15,06,08,11.80
2016,07,15,06,09,11.80
2016,07,15,06,10,11.90
2016,07,15,06,11,11.90
2016,07,15,06,12,11.90
2016,07,15,06,13,11.90
2016,07,15,06,14,11.90
2016,07,15,06,15,11.90
2016,07,15,06,16,11.90
2016,07,15,06,17,11.90
2016,07,15,06,18,11.90
2016,07,15,06,19,11.90
2016,07,15,06,20,12.00
2016,07,15,06,21,12.00
2016,07,15,06,22,12.00
2016,07,15,06,23,12.10
2016,07,15,06,24,12.10
2016,07,15,06,25,12.20
2016,07,15,06,26,12.20
2016,07,15,06,27,12.20
2016,07,15,06,28,12.30
2016,07,15,06,29,12.30
2016,07,15,06,30,12.30
2016,07,15,06,31,12.40
2016,07,15,06,32,12.40
2016,07,15,06,33,12.40
2016,07,15,06,34,12.40
2016,07,15,06,35,12.40
2016,07,15,06,36,12.50
2016,07,15,06,37,12.50
2016,07,15,06,38,12.60
2016,07,15,06,39,12.60
2016,07,15,06,40,12.60
2016,07,15,06,41,12.70
2016,07,15,06,42,12.70
2016,07,15,06,43,12.70
2016,07,15,06,44,12.80
2016,07,15,06,45,12.80
2016,07,15,06,46,12.80
2016,07,15,06,47,12.80
2016,07,15,06,48,12.80
2016,07,15,06,49,12.90
2016,07,15,06,50,12.90
2016,07,15,06,51,12.90
2016,07,15,06,52,12.90
2016,07,15,06,53,13.00
2016,07,15,06,54,13.00
2016,07,15,06,55,13.00
2016,07,15,06,56,13.10
2016,07,15,06,57,13.10
2016,07,15,06,58,13.10
2016,07,15,06,59,13.10
2016,07,15,07,00,13.20
2016,07,15,07,01,13.20
2016,07,15,07,02,13.30
2016,07,15,07,03,13.30
2016,07,15,07,04,13.40
2016,07,15,07,05,13.40
2016,07,15,07,06,13.50
2016,07,15,07,07,13.60
2016,07,15,07,08,13.60
2016,07,15,07,09,13.70
2016,07,15,07,10,13.70
2016,07,15,07,11,13.80
2016,07,15,07,12,13.80
2016,07,15,07,13,13.90
2016,07,15,07,14,13.90
2016,07,15,07,15,14.00
2016,07,15,07,16,14.10
2016,07,15,07,17,14.10
2016,07,15,07,18,14.10
2016,07,15,07,19,14.20
2016,07,15,07,20,14.20
2016,07,15,07,21,14.20
2016,07,15,07,22,14.20
2016,07,15,07,23,14.20
2016,07,15,07,24,14.20
2016,07,15,07,25,14.30
2016,07,15,07,26,14.30
2016,07,15,07,27,14.30
2016,07,15,07,28,14.30
2016,07,15,07,29,14.30
2016,07,15,07,30,14.40
2016,07,15,07,31,14.40
2016,07,15,07,32,14.50
2016,07,15,07,33,14.50
2016,07,15,07,34,14.50
2016,07,15,07,35,14.60
2016,07,15,07,36,14.60
2016,07,15,07,37,14.60
2016,07,15,07,38,14.60
2016,07,15,07,39,14.60
2016,07,15,07,40,14.60
2016,07,15,07,41,14.60
2016,07,15,07,42,14.60
2016,07,15,07,43,14.60
2016,07,15,07,44,14.60
2016,07,15,07,45,14.60
2016,07,15,07,46,14.60
2016,07,15,07,47,14.60
2016,07,15,07,48,14.60
2016,07,15,07,49,14.70
2016,07,15,07,50,14.70
2016,07,15,07,51,14.70
2016,07,15,07,52,14.70
2016,07,15,07,53,14.80
2016,07,15,07,54,14.80
2016,07,15,07,55,14.80
2016,07,15,07,56,14.90
2016,07,15,07,57,14.90
2016,07,15,07,58,14.90
2016,07,15,07,59,14.90
2016,07,15,08,00,15.00
2016,07,15,08,01,15.00
2016,07,15,08,02,15.10
2016,07,15,08,03,15.10
2016,07,15,08,04,15.20
2016,07,15,08,05,15.30
2016,07,15,08,06,15.30
2016,07,15,08,07,15.40
2016,07,15,08,08,15.40
2016,07,15,08,09,15.50
2016,07,15,08,10,15.60
2016,07,15,08,11,15.70
2016,07,15,08,12,15.80
2016,07,15,08,13,15.80
2016,07,15,08,14,15.90
2016,07,15,08,15,16.00
2016,07,15,08,16,16.10
2016,07,15,08,17,16.20
2016,07,15,08,18,16.20
2016,07,15,08,19,16.20
2016,07,15,08,20,16.20
2016,07,15,08,21,16.20
2016,07,15,08,22,16.20
2016,07,15,08,23,16.20
2016,07,15,08,24,16.20
2016,07,15,08,25,16.20
2016,07,15,08,26,16.20
2016,07,15,08,27,16.20
2016,07,15,08,28,16.20
2016,07,15,08,29,16.20
2016,07,15,08,30,16.20
2016,07,15,08,31,16.20
2016,07,15,08,32,16.20
2016,07,15,08,33,16.20
2016,07,15,08,34,16.20
2016,07,15,08,35,16.10
2016,07,15,08,36,16.10
2016,07,15,08,37,16.10
2016,07,15,08,38,16.10
2016,07,15,08,39,16.00
2016,07,15,08,40,16.00
2016,07,15,08,41,16.00
2016,07,15,08,42,15.90
2016,07,15,08,43,15.90
2016,07,15,08,44,15.90
2016,07,15,08,45,15.90
2016,07,15,08,46,15.90
2016,07,15,08,47,15.90
2016,07,15,08,48,16.00
2016,07,15,08,49,16.00
2016,07,15,08,50,16.10
2016,07,15,08,51,16.10
2016,07,15,08,52,16.20
2016,07,15,08,53,16.20
2016,07,15,08,54,16.20
2016,07,15,08,55,16.30
2016,07,15,08,56,16.30
2016,07,15,08,57,16.30
2016,07,15,08,58,16.40
2016,07,15,08,59,16.40
2016,07,15,09,00,16.50
2016,07,15,09,01,16.50
2016,07,15,09,02,16.60
2016,07,15,09,03,16.60
2016,07,15,09,04,16.60
2016,07,15,09,05,16.70
2016,07,15,09,06,16.70
2016,07,15,09,07,16.80
2016,07,15,09,08,16.80
2016,07,15,09,09,16.80
2016,07,15,09,10,16.80
2016,07,15,09,11,16.90
2016,07,15,09,12,16.90
2016,07,15,09,13,17.00
2016,07,15,09,14,17.00
2016,07,15,09,15,17.10
2016,07,15,09,16,17.10
2016,07,15,09,17,17.10
2016,07,15,09,18,17.10
2016,07,15,09,19,17.10
2016,07,15,09,20,17.20
2016,07,15,09,21,17.20
2016,07,15,09,22,17.20
2016,07,15,09,23,17.10
2016,07,15,09,24,17.10
2016,07,15,09,25,17.10
2016,07,15,09,26,17.00
2016,07,15,09,27,17.00
2016,07,15,09,28,17.00
2016,07,15,09,29,17.00
2016,07,15,09,30,17.00
2016,07,15,09,31,17.00
2016,07,15,09,32,17.10
2016,07,15,09,33,17.10
2016,07,15,09,34,17.10
2016,07,15,09,35,17.10
2016,07,15,09,36,17.20
2016,07,15,09,37,17.20
2016,07,15,09,38,17.20
2016,07,15,09,39,17.30
2016,07,15,09,40,17.30
2016,07,15,09,41,17.30
2016,07,15,09,42,17.30
2016,07,15,09,43,17.40
2016,07,15,09,44,17.40
2016,07,15,09,45,17.50
2016,07,15,09,46,17.60
2016,07,15,09,47,17.60
2016,07,15,09,48,17.60
2016,07,15,09,49,17.60
2016,07,15,09,50,17.60
2016,07,15,09,51,17.70
2016,07,15,09,52,17.70
2016,07,15,09,53,17.70
2016,07,15,09,54,17.70
2016,07,15,09,55,17.70
2016,07,15,09,56,17.80
2016,07,15,09,57,17.80
2016,07,15,09,58,17.80
2016,07,15,09,59,17.90
2016,07,15,10,00,17.90
2016,07,15,10,01,17.90
2016,07,15,10,02,17.90
2016,07,15,10,03,17.90
2016,07,15,10,04,17.90
2016,07,15,10,05,17.90
2016,07,15,10,06,17.80
2016,07,15,10,07,17.80
2016,07,15,10,08,17.80
2016,07,15,10,09,17.80
2016,07,15,10,10,17.80
2016,07,15,10,11,17.90
2016,07,15,10,12,17.90
2016,07,15,10,13,18.00
2016,07,15,10,14,18.00
2016,07,15,10,15,18.10
2016,07,15,10,16,18.10
2016,07,15,10,17,18.10
2016,07,15,10,18,18.10
2016,07,15,10,19,18.10
2016,07,15,10,20,18.10
2016,07,15,10,21,18.10
2016,07,15,10,22,18.20
2016,07,15,10,23,18.10
2016,07,15,10,24,18.10
2016,07,15,10,25,18.10
2016,07,15,10,26,18.10
2016,07,15,10,27,18.10
2016,07,15,10,28,18.10
2016,07,15,10,29,18.10
2016,07,15,10,30,18.10
2016,07,15,10,31,18.10
2016,07,15,10,32,18.10
2016,07,15,10,33,18.10
2016,07,15,10,34,18.00
2016,07,15,10,35,18.00
2016,07,15,10,36,18.00
2016,07,15,10,37,17.90
2016,07,15,10,38,17.90
2016,07,15,10,39,17.90
2016,07,15,10,40,17.90
2016,07,15,10,41,17.90
2016,07,15,10,42,17.90
2016,07,15,10,43,17.90
2016,07,15,10,44,17.80
2016,07,15,10,45,17.80
2016,07,15,10,46,17.80
2016,07,15,10,47,17.80
2016,07,15,10,48,17.80
2016,07,15,10,49,17.90
2016,07,15,10,50,17.90
2016,07,15,10,51,17.90
2016,07,15,10,52,18.00
2016,07,15,10,53,18.10
2016,07,15,10,54,18.10
2016,07,15,10,55,18.10
2016,07,15,10,56,18.00
2016,07,15,10,57,18.00
2016,07,15,10,58,18.00
2016,07,15,10,59,18.00
2016,07,15,11,00,18.10
2016,07,15,11,01,18.00
2016,07,15,11,02,18.00
2016,07,15,11,03,18.10
2016,07,15,11,04,18.10
2016,07,15,11,05,18.10
2016,07,15,11,06,18.10
2016,07,15,11,07,18.10
2016,07,15,11,08,18.10
2016,07,15,11,09,18.10
2016,07,15,11,10,18.10
2016,07,15,11,11,18.10
2016,07,15,11,12,18.10
2016,07,15,11,13,18.10
2016,07,15,11,14,18.10
2016,07,15,11,15,18.10
2016,07,15,11,16,18.10
2016,07,15,11,17,18.10
2016,07,15,11,18,18.10
2016,07,15,11,19,18.20
2016,07,15,11,20,18.20
2016,07,15,11,21,18.30
2016,07,15,11,22,18.40
2016,07,15,11,23,18.40
2016,07,15,11,24,18.50
2016,07,15,11,25,18.50
2016,07,15,11,26,18.50
2016,07,15,11,27,18.60
2016,07,15,11,28,18.60
2016,07,15,11,29,18.70
2016,07,15,11,30,18.70
2016,07,15,11,31,18.70
2016,07,15,11,32,18.80
2016,07,15,11,33,18.80
2016,07,15,11,34,18.90
2016,07,15,11,35,18.90
2016,07,15,11,36,18.80
2016,07,15,11,37,18.80
2016,07,15,11,38,18.80
2016,07,15,11,39,18.80
2016,07,15,11,40,18.80
2016,07,15,11,41,18.80
2016,07,15,11,42,18.90
2016,07,15,11,43,18.90
2016,07,15,11,44,19.00
2016,07,15,11,45,19.00
2016,07,15,11,46,19.10
2016,07,15,11,47,19.10
2016,07,15,11,48,19.20
2016,07,15,11,49,19.30
2016,07,15,11,50,19.30
2016,07,15,11,51,19.30
2016,07,15,11,52,19.30
2016,07,15,11,53,19.30
2016,07,15,11,54,19.30
2016,07,15,11,55,19.20
2016,07,15,11,56,19.10
2016,07,15,11,57,19.00
2016,07,15,11,58,19.00
2016,07,15,11,59,18.90
2016,07,15,12,00,18.90
2016,07,15,12,01,18.90
2016,07,15,12,02,18.90
2016,07,15,12,03,18.80
2016,07,15,12,04,18.80
2016,07,15,12,05,18.80
2016,07,15,12,06,18.80
2016,07,15,12,07,18.80
2016,07,15,12,08,18.80
2016,07,15,12,09,18.80
2016,07,15,12,10,18.80
2016,07,15,12,11,18.80
2016,07,15,12,12,18.80
2016,07,15,12,13,18.80
2016,07,15,12,14,18.80
2016,07,15,12,15,18.70
2016,07,15,12,16,18.70
2016,07,15,12,17,18.70
2016,07,15,12,18,18.70
2016,07,15,12,19,18.80
2016,07,15,12,20,18.80
2016,07,15,12,21,18.90
2016,07,15,12,22,18.90
2016,07,15,12,23,18.90
2016,07,15,12,24,19.00
2016,07,15,12,25,19.00
2016,07,15,12,26,19.10
2016,07,15,12,27,19.10
2016,07,15,12,28,19.10
2016,07,15,12,29,19.10
2016,07,15,12,30,19.10
2016,07,15,12,31,19.20
2016,07,15,12,32,19.20
2016,07,15,12,33,19.20
2016,07,15,12,34,19.20
2016,07,15,12,35,19.20
2016,07,15,12,36,19.20
2016,07,15,12,37,19.20
2016,07,15,12,38,19.20
2016,07,15,12,39,19.30
2016,07,15,12,40,19.30
2016,07,15,12,41,19.40
2016,07,15,12,42,19.40
2016,07,15,12,43,19.40
2016,07,15,12,44,19.40
2016,07,15,12,45,19.30
2016,07,15,12,46,19.30
2016,07,15,12,47,19.30
2016,07,15,12,48,19.30
2016,07,15,12,49,19.30
2016,07,15,12,50,19.30
2016,07,15,12,51,19.20
2016,07,15,12,52,19.20
2016,07,15,12,53,19.20
2016,07,15,12,54,19.20
2016,07,15,12,55,19.10
2016,07,15,12,56,19.10
2016,07,15,12,57,19.10
2016,07,15,12,58,19.20
2016,07,15,12,59,19.10
2016,07,15,13,00,19.10
2016,07,15,13,01,19.10
2016,07,15,13,02,19.10
2016,07,15,13,03,19.10
2016,07,15,13,04,19.20
2016,07,15,13,05,19.20
2016,07,15,13,06,19.20
2016,07,15,13,07,19.20
2016,07,15,13,08,19.20
2016,07,15,13,09,19.20
2016,07,15,13,10,19.20
2016,07,15,13,11,19.20
2016,07,15,13,12,19.20
2016,07,15,13,13,19.20
2016,07,15,13,14,19.20
2016,07,15,13,15,19.30
2016,07,15,13,16,19.20
2016,07,15,13,17,19.20
2016,07,15,13,18,19.20
2016,07,15,13,19,19.30
2016,07,15,13,20,19.30
2016,07,15,13,21,19.30
2016,07,15,13,22,19.30
2016,07,15,13,23,19.30
2016,07,15,13,24,19.30
2016,07,15,13,25,19.30
2016,07,15,13,26,19.30
2016,07,15,13,27,19.30
2016,07,15,13,28,19.30
2016,07,15,13,29,19.30
2016,07,15,13,30,19.40
2016,07,15,13,31,19.40
2016,07,15,13,32,19.50
2016,07,15,13,33,19.50
2016,07,15,13,34,19.60
2016,07,15,13,35,19.50
2016,07,15,13,36,19.50
2016,07,15,13,37,19.40
2016,07,15,13,38,19.30
2016,07,15,13,39,19.30
2016,07,15,13,40,19.20
2016,07,15,13,41,19.20
2016,07,15,13,42,19.20
2016,07,15,13,43,19.20
2016,07,15,13,44,19.10
2016,07,15,13,45,19.10
2016,07,15,13,46,19.10
2016,07,15,13,47,19.10
2016,07,15,13,48,19.10
2016,07,15,13,49,19.00
2016,07,15,13,50,19.00
2016,07,15,13,51,19.00
2016,07,15,13,52,19.00
2016,07,15,13,53,19.10
2016,07,15,13,54,19.10
2016,07,15,13,55,19.10
2016,07,15,13,56,19.10
2016,07,15,13,57,19.00
2016,07,15,13,58,19.00
2016,07,15,13,59,18.90
2016,07,15,14,00,18.90
2016,07,15,14,01,18.90
2016,07,15,14,02,18.90
2016,07,15,14,03,19.00
2016,07,15,14,04,19.00
2016,07,15,14,05,19.10
2016,07,15,14,06,19.20
2016,07,15,14,07,19.30
2016,07,15,14,08,19.30
2016,07,15,14,09,19.40
2016,07,15,14,10,19.50
2016,07,15,14,11,19.60
2016,07,15,14,12,19.60
2016,07,15,14,13,19.70
2016,07,15,14,14,19.80
2016,07,15,14,15,19.90
2016,07,15,14,16,19.90
2016,07,15,14,17,19.90
2016,07,15,14,18,19.90
2016,07,15,14,19,20.00
2016,07,15,14,20,20.00
2016,07,15,14,21,19.90
2016,07,15,14,22,19.90
2016,07,15,14,23,19.80
2016,07,15,14,24,19.80
2016,07,15,14,25,19.80
2016,07,15,14,26,19.80
2016,07,15,14,27,19.80
2016,07,15,14,28,19.80
2016,07,15,14,29,19.80
2016,07,15,14,30,19.80
2016,07,15,14,31,19.80
2016,07,15,14,32,19.80
2016,07,15,14,33,19.70
2016,07,15,14,34,19.70
2016,07,15,14,35,19.70
2016,07,15,14,36,19.70
2016,07,15,14,37,19.70
2016,07,15,14,38,19.70
2016,07,15,14,39,19.70
2016,07,15,14,40,19.70
2016,07,15,14,41,19.80
2016,07,15,14,42,19.80
2016,07,15,14,43,19.80
2016,07,15,14,44,19.90
2016,07,15,14,45,20.00
2016,07,15,14,46,20.00
2016,07,15,14,47,20.10
2016,07,15,14,48,20.10
2016,07,15,14,49,20.10
2016,07,15,14,50,20.10
2016,07,15,14,51,20.10
2016,07,15,14,52,20.00
2016,07,15,14,53,19.90
2016,07,15,14,54,19.90
2016,07,15,14,55,20.00
2016,07,15,14,56,20.00
2016,07,15,14,57,20.10
2016,07,15,14,58,20.20
2016,07,15,14,59,20.20
2016,07,15,15,00,20.20
2016,07,15,15,01,20.20
2016,07,15,15,02,20.20
2016,07,15,15,03,20.20
2016,07,15,15,04,20.20
2016,07,15,15,05,20.20
2016,07,15,15,06,20.20
2016,07,15,15,07,20.20
2016,07,15,15,08,20.20
2016,07,15,15,09,20.20
2016,07,15,15,10,20.20
2016,07,15,15,11,20.30
2016,07,15,15,12,20.30
2016,07,15,15,13,20.40
2016,07,15,15,14,20.50
2016,07,15,15,15,20.50
2016,07,15,15,16,20.50
2016,07,15,15,17,20.50
2016,07,15,15,18,20.40
2016,07,15,15,19,20.40
2016,07,15,15,20,20.40
2016,07,15,15,21,20.50
2016,07,15,15,22,20.50
2016,07,15,15,23,20.60
2016,07,15,15,24,20.60
2016,07,15,15,25,20.60
2016,07,15,15,26,20.60
2016,07,15,15,27,20.70
2016,07,15,15,28,20.70
2016,07,15,15,29,20.70
2016,07,15,15,30,20.70
2016,07,15,15,31,20.60
2016,07,15,15,32,20.60
2016,07,15,15,33,20.60
2016,07,15,15,34,20.70
2016,07,15,15,35,20.70
2016,07,15,15,36,20.70
2016,07,15,15,37,20.60
2016,07,15,15,38,20.50
2016,07,15,15,39,20.50
2016,07,15,15,40,20.50
2016,07,15,15,41,20.50
2016,07,15,15,42,20.50
2016,07,15,15,43,20.40
2016,07,15,15,44,20.50
2016,07,15,15,45,20.50
2016,07,15,15,46,20.60
2016,07,15,15,47,20.60
2016,07,15,15,48,20.60
2016,07,15,15,49,20.60
2016,07,15,15,50,20.60
2016,07,15,15,51,20.60
2016,07,15,15,52,20.70
2016,07,15,15,53,20.80
2016,07,15,15,54,20.90
2016,07,15,15,55,20.90
2016,07,15,15,56,20.90
2016,07,15,15,57,20.90
2016,07,15,15,58,21.00
2016,07,15,15,59,21.10
2016,07,15,16,00,21.00
2016,07,15,16,01,21.00
2016,07,15,16,02,21.00
2016,07,15,16,03,21.00
2016,07,15,16,04,21.00
2016,07,15,16,05,21.00
2016,07,15,16,06,20.90
2016,07,15,16,07,20.90
2016,07,15,16,08,20.90
2016,07,15,16,09,20.90
2016,07,15,16,10,21.00
2016,07,15,16,11,21.00
2016,07,15,16,12,21.10
2016,07,15,16,13,21.10
2016,07,15,16,14,21.20
2016,07,15,16,15,21.30
2016,07,15,16,16,21.30
2016,07,15,16,17,21.30
2016,07,15,16,18,21.20
2016,07,15,16,19,21.00
2016,07,15,16,20,20.90
2016,07,15,16,21,20.80
2016,07,15,16,22,20.70
2016,07,15,16,23,20.70
2016,07,15,16,24,20.70
2016,07,15,16,25,20.70
2016,07,15,16,26,20.60
2016,07,15,16,27,20.50
2016,07,15,16,28,20.50
2016,07,15,16,29,20.40
2016,07,15,16,30,20.30
2016,07,15,16,31,20.20
2016,07,15,16,32,20.20
2016,07,15,16,33,20.30
2016,07,15,16,34,20.40
2016,07,15,16,35,20.40
2016,07,15,16,36,20.40
2016,07,15,16,37,20.50
2016,07,15,16,38,20.50
2016,07,15,16,39,20.50
2016,07,15,16,40,20.60
2016,07,15,16,41,20.60
2016,07,15,16,42,20.60
2016,07,15,16,43,20.60
2016,07,15,16,44,20.70
2016,07,15,16,45,20.70
2016,07,15,16,46,20.70
2016,07,15,16,47,20.70
2016,07,15,16,48,20.70
2016,07,15,16,49,20.70
2016,07,15,16,50,20.60
2016,07,15,16,51,20.50
2016,07,15,16,52,20.40
2016,07,15,16,53,20.30
2016,07,15,16,54,20.20
2016,07,15,16,55,20.20
2016,07,15,16,56,20.20
2016,07,15,16,57,20.20
2016,07,15,16,58,20.30
2016,07,15,16,59,20.40
2016,07,15,17,00,20.40
2016,07,15,17,01,20.50
2016,07,15,17,02,20.50
2016,07,15,17,03,20.50
2016,07,15,17,04,20.50
2016,07,15,17,05,20.50
2016,07,15,17,06,20.50
2016,07,15,17,07,20.60
2016,07,15,17,08,20.50
2016,07,15,17,09,20.50
2016,07,15,17,10,20.40
2016,07,15,17,11,20.40
2016,07,15,17,12,20.40
2016,07,15,17,13,20.30
2016,07,15,17,14,20.30
2016,07,15,17,15,20.20
2016,07,15,17,16,20.20
2016,07,15,17,17,20.10
2016,07,15,17,18,20.10
2016,07,15,17,19,20.20